Simultaneous Nadir Overpasses (SNOs) Predictions

Prediction of SNOs between AQUA and METOP-A Satellite Orbit:

Table of predicted SNOs for the next 14.0 days since TLE Epoch: 11/13/2020
Index Date (AQUA) Time (AQUA) Lat,Lon (AQUA) SZA (AQUA ) Date (METOP-A) Time (METOP-A) Lat,Lon (METOP-A) SZA (METOP-A ) Distance(km) Time Diff (sec)
1 11/14/2020 22:25:48 76.78,-170.24 95.43 11/14/2020 22:25:22 76.79,-170.07 95.43 4.25 26
2 11/14/2020 23:15:14 -76.80, -2.65 84.55 11/14/2020 23:16:03 -76.81, -2.69 84.55 1.29 49
3 11/17/2020 18:00:02 76.76,-103.72 96.10 11/17/2020 17:59:45 76.78,-103.79 96.12 2.09 17
4 11/17/2020 18:49:29 -76.83, 63.70 83.83 11/17/2020 18:50:25 -76.84, 63.78 83.82 2.54 56
5 11/20/2020 12:44:44 -76.53, 155.89 83.52 11/20/2020 12:43:34 -76.48, 154.14 83.49 45.55 70
6 11/20/2020 13:34:17 76.80, -37.41 96.79 11/20/2020 13:34:07 76.80, -37.34 96.80 1.79 10
7 11/20/2020 14:23:43 -76.81, 130.18 83.19 11/20/2020 14:24:48 -76.82, 130.07 83.18 3.25 65
8 11/23/2020 08:19:02 -76.76,-138.47 82.65 11/23/2020 08:17:49 -76.78,-138.42 82.63 2.47 73
9 11/23/2020 09:08:30 76.79, 29.06 97.39 11/23/2020 09:08:29 76.78, 28.93 97.39 3.47 1
10 11/23/2020 09:57:57 -76.85,-163.52 82.54 11/23/2020 09:59:09 -76.85,-163.49 82.55 0.93 72
11 11/26/2020 03:53:16 -76.76, -72.03 82.09 11/26/2020 03:52:12 -76.76, -72.15 82.08 2.95 64
12 11/26/2020 04:42:44 76.79, 95.50 97.95 11/26/2020 04:42:51 76.80, 95.35 97.97 3.82 7
